TimeCDT,TemperatureF,Dew PointF,Humidity,Sea Level PressureIn,VisibilityMPH,Wind Direction,Wind SpeedMPH,Gust SpeedMPH,PrecipitationIn,Events,Conditions,WindDirDegrees,DateUTC
12:24 AM,46.4,37.4,71,29.66,10.0,ESE,9.2,19.6,0.00,Rain-Thunderstorm,Light Thunderstorms and Rain,120,2013-04-14 05:24:00
12:52 AM,45.0,37.9,76,29.72,9.0,SSE,11.5,-,0.02,Rain-Thunderstorm,Light Thunderstorms and Rain,150,2013-04-14 05:52:00
1:29 AM,44.6,37.4,76,29.67,10.0,ENE,8.1,-,0.10,Rain,Light Rain,70,2013-04-14 06:29:00
1:52 AM,44.1,37.9,79,29.66,10.0,East,6.9,-,0.10,,Overcast,90,2013-04-14 06:52:00
2:52 AM,45.0,37.9,76,29.64,10.0,NE,8.1,-,0.00,Rain,Light Rain,40,2013-04-14 07:52:00
3:52 AM,45.0,39.0,80,29.56,10.0,East,10.4,18.4,0.00,,Mostly Cloudy,100,2013-04-14 08:52:00
4:52 AM,46.0,39.9,79,29.51,10.0,SE,9.2,-,N/A,,Mostly Cloudy,140,2013-04-14 09:52:00
5:08 AM,46.4,39.2,76,29.50,10.0,ESE,6.9,-,N/A,,Mostly Cloudy,120,2013-04-14 10:08:00
5:17 AM,46.4,39.2,76,29.50,10.0,SE,11.5,16.1,N/A,Thunderstorm,Thunderstorm,130,2013-04-14 10:17:00
5:52 AM,46.9,41.0,80,29.48,10.0,ESE,9.2,-,0.01,Thunderstorm,Thunderstorm,120,2013-04-14 10:52:00
6:01 AM,48.2,41.0,76,29.48,10.0,ESE,10.4,-,N/A,,Mostly Cloudy,120,2013-04-14 11:01:00
6:52 AM,48.0,41.0,77,29.44,10.0,ESE,13.8,-,N/A,,Mostly Cloudy,120,2013-04-14 11:52:00
7:52 AM,51.1,43.0,74,29.42,10.0,SE,15.0,-,N/A,,Mostly Cloudy,130,2013-04-14 12:52:00
8:52 AM,54.0,45.0,72,29.37,10.0,SE,18.4,-,N/A,,Overcast,140,2013-04-14 13:52:00
9:52 AM,55.0,46.0,72,29.36,10.0,SE,15.0,-,N/A,,Overcast,140,2013-04-14 14:52:00
10:52 AM,61.0,48.9,64,29.34,10.0,SE,16.1,25.3,N/A,,Overcast,140,2013-04-14 15:52:00
11:52 AM,66.0,48.9,54,29.33,10.0,South,24.2,29.9,N/A,,Overcast,170,2013-04-14 16:52:00
12:52 PM,68.0,48.0,49,29.33,10.0,SSW,23.0,32.2,N/A,,Overcast,200,2013-04-14 17:52:00
1:52 PM,66.9,46.9,49,29.34,10.0,SW,16.1,28.8,N/A,,Overcast,230,2013-04-14 18:52:00
2:52 PM,59.0,46.0,62,29.42,10.0,WSW,15.0,25.3,N/A,,Overcast,250,2013-04-14 19:52:00
3:52 PM,57.0,46.0,67,29.46,10.0,WSW,12.7,20.7,N/A,,Overcast,250,2013-04-14 20:52:00
4:52 PM,62.1,46.0,56,29.48,10.0,West,17.3,21.9,N/A,,Mostly Cloudy,260,2013-04-14 21:52:00
5:52 PM,60.1,43.0,53,29.50,10.0,WNW,19.6,-,N/A,,Mostly Cloudy,290,2013-04-14 22:52:00
6:52 PM,57.9,44.1,60,29.54,10.0,NW,6.9,-,N/A,,Mostly Cloudy,310,2013-04-14 23:52:00
7:52 PM,53.1,44.1,71,29.56,10.0,NW,6.9,-,N/A,,Mostly Cloudy,320,2013-04-15 00:52:00
8:52 PM,55.9,36.0,47,29.61,10.0,WNW,11.5,-,N/A,,Mostly Cloudy,290,2013-04-15 01:52:00
9:52 PM,53.1,34.0,48,29.64,10.0,West,8.1,-,N/A,,Scattered Clouds,280,2013-04-15 02:52:00
10:52 PM,48.9,36.0,61,29.66,10.0,WNW,4.6,-,N/A,,Scattered Clouds,290,2013-04-15 03:52:00
11:52 PM,48.0,36.0,63,29.67,10.0,WSW,4.6,-,N/A,,Partly Cloudy,240,2013-04-15 04:52:00